This is the latest recevied weather packets stored in our database for station/object K0QED. If no packets are shown the sender has not sent any weather packets the latest 1 day(s).
| Time | Temp. | Humidity | Pressure | Rain* | Wind** | Luminosity | Snow |
|---|---|---|---|---|---|---|---|
| 1778032367 | -1.11° C | 99% | 1013.9 hPa | 0 mm | - | 0 W/m² | - |
| 1778032064 | -1.11° C | 99% | 1013.9 hPa | 0 mm | - | 0 W/m² | - |
| 1778031761 | -1.11° C | 99% | 1013.7 hPa | 0 mm | - | 1 W/m² | - |
| 1778031458 | -0.56° C | 99% | 1014 hPa | 0 mm | - | 1 W/m² | - |
| 1778031155 | 0° C | 99% | 1013.7 hPa | 0 mm | - | 2 W/m² | - |
| 1778030851 | 0° C | 99% | 1013.6 hPa | 0 mm | - | 4 W/m² | - |
| 1778030548 | 0° C | 99% | 1013.4 hPa | 0 mm | - | 4 W/m² | - |
| 1778030245 | 0° C | 99% | 1013.6 hPa | 0 mm | - | 6 W/m² | - |
| 1778029337 | 0° C | 99% | 1013.2 hPa | 0 mm | - | 11 W/m² | - |
| 1778029034 | 0° C | 99% | 1013.2 hPa | 1.78 mm | - | 13 W/m² | - |
| 1778028731 | 0° C | 99% | 1013.5 hPa | 0 mm | - | 10 W/m² | - |
| 1778028427 | 0° C | 99% | 1013.5 hPa | 0 mm | - | 10 W/m² | - |
| 1778028125 | 0° C | 99% | 1013 hPa | 0 mm | - | 13 W/m² | - |
| 1778027517 | 0° C | 99% | 1013.9 hPa | 0 mm | - | 13 W/m² | - |
| 1778027213 | 0° C | 99% | 1013.9 hPa | 0 mm | - | 11 W/m² | - |
| 1778026909 | 0° C | 99% | 1013.6 hPa | 0 mm | - | 10 W/m² | - |
| 1778025697 | 0° C | 99% | 1013.2 hPa | 0 mm | - | 11 W/m² | - |
| 1778025395 | 0° C | 99% | 1013.4 hPa | 0 mm | - | 15 W/m² | - |
| 1778025092 | 0° C | 99% | 1013 hPa | 0 mm | - | 19 W/m² | - |
| 1778024183 | 0° C | 99% | 1012.7 hPa | 0 mm | - | 23 W/m² | - |
* Rain latest hour (hover to see other rain measurements)
** Current wind speed in m/s (hover to see current wind gust speed)